Location: Caltech
(34.1382°N, 118.1253°W)
Time: 20:06:21
(UTC-07:00)

Meteor 2-4 Rocket - Visible Passes

Search period start: 25 July 2014 00:00
Search period end: 04 August 2014 00:00
Orbit: 799 x 909 km, 81.2° (Epoch: 25 July)

Date Brightness Start Highest point End Pass type
(mag) Time Alt. Az. Time Alt. Az. Time Alt. Az.
25 Jul 6.2 01:28:05 10° WNW 01:28:48 11° WNW 01:28:48 11° WNW visible
25 Jul 4.5 23:31:36 10° N 23:35:56 48° NNE 23:35:56 48° NNE visible
26 Jul 6.2 01:16:52 10° NW 01:18:01 12° WNW 01:18:01 12° WNW visible
26 Jul 4.5 23:20:44 10° N 23:25:10 48° NNE 23:25:10 48° NNE visible
27 Jul 6.1 01:05:43 10° NW 01:07:15 14° WNW 01:07:15 14° WNW visible
27 Jul 4.4 23:09:52 10° N 23:14:25 48° NE 23:14:25 48° NE visible
28 Jul 6.1 00:54:35 10° NW 00:56:30 15° WNW 00:56:30 15° WNW visible
28 Jul 4.4 22:59:00 10° N 23:03:41 47° NE 23:03:41 47° NE visible
29 Jul 6.0 00:43:30 10° NW 00:45:46 16° WNW 00:45:46 16° WNW visible
29 Jul 4.4 22:48:09 10° N 22:52:58 46° NE 22:52:58 46° NE visible
30 Jul 5.9 00:32:26 10° NW 00:35:03 18° WNW 00:35:03 18° WNW visible
30 Jul 4.4 22:37:18 10° N 22:42:16 44° ENE 22:42:16 44° ENE visible
31 Jul 5.8 00:21:22 10° NW 00:24:21 19° WNW 00:24:21 19° WNW visible
31 Jul 4.4 22:26:27 10° N 22:31:35 43° ENE 22:31:35 43° ENE visible
01 Aug 5.8 00:10:20 10° NW 00:13:40 21° WNW 00:13:40 21° WNW visible
01 Aug 4.4 22:15:36 10° N 22:20:55 41° ENE 22:20:55 41° ENE visible
01 Aug 5.7 23:59:19 10° NW 00:03:00 22° WNW 00:03:00 22° WNW visible
02 Aug 4.5 22:04:46 10° N 22:10:16 38° ENE 22:10:16 38° ENE visible
02 Aug 5.6 23:48:19 10° NW 23:52:22 24° W 23:52:22 24° W visible
03 Aug 4.5 21:53:57 10° N 21:59:22 36° ENE 21:59:38 36° E visible
03 Aug 5.4 23:37:19 10° NW 23:41:44 26° W 23:41:44 26° W visible
